GEFSMA_con_cape1000_336.txt.gz
Probability
19 13 13 16 19 19 13 13 13 13 6 6 6 3 3 6 3 0 0 26 32 35 35 32 35 29 26 23 26 19 19 26 26 19 16 19 19 13 16 16 16 19 19
23 16 16 23 19 19 19 10 10 10 6 6 6 6 3 3 3 0 3 13 32 35 29 29 26 26 23 23 26 19 19 23 23 19 19 16 16 16 13 13 13 16 16
19 13 16 19 23 19 23 16 10 10 13 13 13 13 10 10 6 3 3 3 6 35 32 32 26 29 23 19 23 19 19 19 16 19 19 23 19 19 16 16 16 16 13
26 23 19 19 19 13 13 13 10 10 10 10 10 13 13 10 10 10 3 3 3 3 13 32 29 32 29 16 13 19 16 19 19 16 16 19 16 16 16 19 19 16 13
23 19 26 19 13 13 16 13 13 13 13 13 13 13 10 10 6 6 3 3 3 3 3 10 32 32 32 19 16 23 19 23 16 16 16 19 19 16 16 16 13 13 13
19 23 26 23 16 13 16 10 13 13 13 10 10 13 10 10 10 10 6 3 0 3 3 3 6 10 32 29 29 26 23 19 19 19 16 19 19 19 16 13 13 13 13
26 19 19 19 19 19 16 13 10 13 13 10 10 10 6 3 6 6 6 3 3 3 0 0 3 3 3 29 29 32 26 23 13 16 16 19 19 19 16 16 13 13 13
26 23 16 19 19 19 19 19 16 13 10 10 6 6 3 6 3 10 6 3 3 3 3 0 0 0 0 3 3 29 32 26 23 19 23 23 23 19 19 13 13 13 13
23 23 13 16 16 16 13 13 10 6 6 6 6 3 3 0 0 3 6 6 3 3 3 3 0 0 0 0 0 6 23 13 19 26 26 32 26 23 19 16 13 13 16
16 16 13 10 13 16 10 10 10 6 6 6 6 3 3 3 3 3 3 3 3 3 3 3 3 0 0 0 0 0 0 6 10 23 26 29 23 23 16 13 10 10 13
13 13 16 13 13 13 13 10 10 6 6 6 6 6 3 3 3 3 3 3 3 3 3 3 3 3 3 3 0 0 0 0 0 3 16 19 19 23 16 13 16 10 16
10 10 16 13 13 13 13 10 10 10 10 10 6 6 6 6 3 3 3 3 3 3 3 3 3 3 3 3 3 3 0 0 0 0 0 3 10 10 19 16 16 13 13
13 13 13 13 13 13 13 10 10 13 10 6 6 6 6 6 6 3 3 3 3 3 3 3 3 3 3 3 3 3 0 0 0 0 0 0 3 3 6 13 13 13 10
13 13 13 13 16 16 16 13 13 10 10 6 6 6 6 6 6 6 3 3 3 3 3 3 0 3 3 3 3 3 3 0 0 0 0 0 0 0 0 0 0 0 0
13 13 13 13 13 16 16 13 13 10 6 6 6 6 6 6 6 6 3 3 3 3 3 0 0 0 0 3 3 3 3 0 0 0 0 0 0 0 0 0 0 0 0
16 16 16 16 13 13 16 13 13 10 10 10 6 10 6 6 6 6 6 3 3 3 3 0 0 0 0 0 3 3 3 0 0 0 0 0 0 0 0 0 0 0 0
19 19 19 16 16 13 13 13 10 10 10 13 13 10 13 6 6 6 6 6 6 3 3 3 0 0 0 0 0 0 0 0 0 0 0 0 0 0 0 0 0 0 0
16 16 16 16 16 16 16 13 10 10 10 13 13 13 13 10 6 6 6 6 6 3 3 3 0 0 0 0 0 0 0 0 0 0 0 0 0 0 0 0 0 0 0
13 16 16 16 19 19 16 13 13 13 16 13 13 13 13 10 10 6 6 6 6 3 3 3 0 0 0 0 0 0 0 0 0 0 0 0 0 0 0 0 0 0 0
16 19 19 19 19 19 19 19 16 16 16 16 16 10 10 10 10 10 10 10 6 3 3 0 0 0 0 0 0 0 0 0 0 0 0 0 0 0 0 0 0 0 0
16 16 19 23 19 16 16 16 19 16 16 16 16 13 13 13 13 10 10 10 6 10 3 3 3 0 0 0 0 0 0 0 0 0 0 0 0 0 0 0 0 0 0
16 16 19 19 16 16 16 13 13 16 16 16 16 13 13 13 13 10 6 3 6 6 3 3 3 3 3 0 0 0 0 0 0 0 0 0 0 0 0 0 0 0 0
13 16 19 19 16 16 16 10 13 13 13 10 10 6 6 10 10 10 3 0 0 0 0 3 3 3 3 3 0 0 0 0 0 0 0 0 0 0 0 0 0 0 0
16 13 16 13 13 13 13 6 6 6 10 10 6 6 10 10 10 3 3 3 3 0 0 0 0 0 0 0 0 0 0 0 0 0 0 0 0 0 0 0 0 0 0
10 13 16 13 13 10 6 3 0 6 10 6 10 10 10 10 10 0 3 3 3 3 3 0 0 0 0 0 0 0 0 0 0 0 0 0 0 0 0 0 0 0 0
10 16 16 16 10 10 6 0 0 10 10 10 10 6 3 3 0 0 3 3 3 3 3 3 0 0 0 0 0 0 0 0 0 0 0 0 0 0 0 0 0 0 0

GEFSMA_con_cape1000_342.txt.gz
Probability
16 13 10 10 10 10 13 19 13 13 13 6 6 6 6 3 3 6 6 16 26 26 26 29 29 26 26 26 26 26 19 23 23 26 26 26 23 16 19 16 13 16 10
13 10 10 10 13 16 13 13 16 13 10 6 6 3 3 3 3 0 0 10 16 32 39 35 29 26 26 26 19 23 19 19 23 26 19 23 19 16 13 16 16 13 10
10 10 10 13 13 10 13 10 10 10 10 6 6 6 3 3 0 0 3 3 10 16 32 39 32 39 32 23 23 23 23 19 19 19 19 19 16 16 10 10 16 16 10
16 13 13 10 10 10 10 10 6 6 13 13 13 6 6 0 6 6 6 3 3 0 16 26 35 35 35 26 19 19 19 23 23 19 19 19 16 13 10 10 13 19 13
13 13 16 10 10 13 6 6 6 6 10 10 10 10 10 3 6 3 10 10 3 3 3 13 29 35 32 23 23 19 19 26 26 19 19 19 19 16 13 13 13 16 16
16 16 10 13 10 10 6 6 10 10 6 6 6 10 10 3 3 6 10 10 6 3 3 3 16 23 32 32 32 23 23 19 26 23 23 19 19 19 16 13 13 16 13
16 13 13 13 10 10 13 10 6 6 6 6 6 6 6 6 6 6 10 10 6 6 3 3 3 6 10 23 32 35 23 23 26 23 23 19 19 19 16 16 13 16 16
10 10 10 10 13 6 10 13 6 6 6 6 6 6 3 3 3 6 10 13 6 6 6 3 3 3 3 10 10 23 26 23 26 29 23 23 19 19 16 16 16 16 13
13 13 10 10 13 13 13 10 3 6 6 3 3 0 3 3 3 3 6 13 10 6 10 6 0 0 0 0 3 13 23 19 29 29 26 29 29 16 23 13 13 10 10
10 13 13 10 13 13 13 13 6 6 3 3 3 3 3 0 3 3 0 3 6 6 6 6 6 3 0 0 0 0 3 3 13 23 23 19 23 16 19 19 23 16 13
10 10 10 10 13 13 13 10 6 6 6 6 3 3 3 3 3 3 3 3 3 3 3 6 6 3 3 0 0 0 0 0 0 0 10 23 19 16 16 19 23 19 13
10 10 10 10 10 13 13 13 10 10 10 10 3 3 6 3 3 3 3 3 3 3 3 3 3 3 3 3 3 0 0 0 0 0 0 0 3 10 16 16 16 13 19
10 10 10 10 10 10 13 13 10 10 10 10 10 6 6 6 3 3 3 6 6 6 3 3 3 6 3 3 3 3 0 0 0 0 0 0 0 3 6 6 10 13 16
6 10 10 10 10 10 13 13 10 10 10 10 10 6 6 6 6 6 6 6 6 3 3 3 3 3 3 3 3 0 3 0 0 0 0 0 0 0 0 3 3 3 3
6 6 10 10 10 10 10 10 10 10 10 10 10 6 6 6 6 6 6 6 6 6 3 3 3 3 0 0 0 3 3 3 0 0 0 0 0 0 0 0 0 0 0
10 10 6 10 10 10 10 10 10 10 10 10 6 6 6 6 6 6 6 6 3 6 6 3 3 3 0 0 0 3 3 0 0 0 0 0 0 0 0 0 0 0 0
10 10 10 10 13 13 13 13 13 13 13 10 6 6 6 6 6 6 6 6 6 3 6 6 3 3 3 0 3 0 3 3 3 0 0 0 0 0 0 0 0 0 0
10 10 10 10 10 13 13 13 13 13 13 10 10 10 10 10 10 10 6 6 6 6 6 6 6 3 3 0 0 0 0 0 3 0 0 0 0 0 0 0 0 0 0
10 10 10 10 10 13 13 13 13 13 10 10 10 10 10 13 13 10 10 10 6 6 6 6 6 6 3 0 0 0 0 0 0 0 0 0 0 0 0 0 0 0 0
3 10 10 10 10 13 13 13 13 13 10 10 10 10 10 10 13 10 10 10 10 10 6 6 6 10 3 3 0 3 6 0 0 0 0 0 0 0 0 0 0 0 0
6 6 6 13 13 13 16 16 13 10 10 10 10 10 10 6 6 10 10 10 10 10 10 13 13 6 3 3 3 3 3 6 3 0 0 0 0 0 0 0 0 0 0
6 6 6 10 13 13 13 6 16 13 16 16 16 16 16 6 6 6 6 6 6 13 13 13 13 10 6 3 3 3 3 3 3 3 0 0 0 0 0 0 0 0 0
6 6 6 6 10 13 10 3 3 13 13 13 16 16 16 13 6 13 6 0 0 0 0 13 10 10 6 6 3 3 3 3 3 10 0 6 0 0 0 0 0 0 0
6 6 10 6 6 10 3 3 0 0 10 10 10 13 13 10 10 10 10 6 6 6 0 0 0 3 6 6 0 3 3 0 0 3 3 6 3 3 0 0 0 0 0
6 6 10 10 10 10 3 3 0 3 6 10 13 13 13 6 6 0 0 6 6 6 3 0 0 0 0 0 0 0 0 3 3 3 0 0 3 3 3 0 0 0 0
6 6 6 10 10 10 3 3 0 6 10 13 13 10 3 3 3 0 0 3 10 6 3 0 0 0 0 0 0 0 0 0 0 0 0 0 0 0 3 3 0 0 0

GEFSMA_con_cape1000_348.txt.gz
Probability
55 58 65 65 55 52 45 52 48 42 42 29 26 26 29 26 23 16 26 23 23 23 23 29 26 26 26 26 19 23 23 16 19 13 13 13 26 13 13 13 13 16 16
58 61 65 65 55 55 45 52 45 52 48 45 32 35 32 29 29 23 16 23 19 23 32 32 29 29 26 32 23 26 26 23 23 23 23 16 19 10 16 16 16 16 16
68 61 52 58 58 58 55 55 42 45 45 35 42 42 42 32 32 29 23 23 23 16 23 29 32 29 32 39 29 32 26 26 23 26 23 19 19 13 13 16 13 13 16
55 68 42 45 55 55 55 65 61 52 48 55 52 48 48 42 42 35 29 26 26 16 26 39 35 32 26 29 29 29 32 26 26 29 19 19 16 10 13 10 13 13 13
61 61 52 52 55 58 58 55 58 55 48 52 52 58 52 52 42 42 35 32 35 39 35 35 35 35 23 26 29 29 26 26 26 26 26 19 16 16 10 10 10 13 13
48 55 61 61 48 42 45 61 58 55 58 58 32 39 48 42 48 55 48 42 45 39 32 26 35 26 32 29 32 26 26 29 23 23 23 26 23 19 13 13 13 16 13
45 52 45 55 45 39 45 45 52 48 42 45 35 35 39 35 45 48 55 45 42 35 32 32 29 35 35 26 32 29 32 26 23 23 26 23 23 23 16 13 13 13 13
48 35 48 52 52 48 45 45 48 45 39 35 35 29 32 39 39 26 48 48 48 42 35 32 35 32 32 35 32 35 35 29 16 19 19 26 23 19 16 16 16 10 10
52 48 52 52 48 35 39 52 42 45 29 32 29 26 19 29 29 39 39 42 42 39 35 32 32 35 35 39 42 19 29 26 19 19 16 19 19 16 19 16 16 13 10
52 48 55 52 48 42 42 32 26 29 39 32 35 23 29 19 19 29 23 26 29 39 35 29 19 32 35 35 26 10 10 6 16 19 23 23 16 16 19 16 16 13 16
52 45 52 45 48 45 39 35 32 35 35 35 35 35 35 32 19 23 23 23 23 26 23 32 35 32 32 35 42 26 6 3 0 3 6 13 19 19 16 19 23 16 16
52 52 45 48 45 42 39 35 42 39 39 42 42 39 35 29 35 23 16 26 16 13 16 19 23 32 32 35 29 6 6 0 0 0 0 3 6 10 10 10 13 19 19
42 52 48 55 48 48 42 45 45 42 45 42 45 45 45 39 32 32 29 19 16 23 19 19 19 23 16 26 26 6 3 0 0 0 0 0 0 3 3 10 13 10 10
32 42 45 45 45 42 29 42 35 39 42 42 29 42 42 39 35 29 26 23 16 26 23 19 23 19 26 23 16 3 13 3 0 0 0 0 0 0 0 0 0 0 3
29 39 42 39 39 32 32 32 39 39 42 32 32 39 45 29 29 32 26 23 19 19 19 23 23 19 23 23 6 10 19 6 0 0 0 0 0 0 0 0 0 0 0
39 35 32 29 23 26 26 29 29 35 35 39 42 42 42 39 32 26 26 26 19 23 26 19 26 13 13 10 6 16 13 6 3 0 0 0 0 0 0 0 0 0 0
39 35 35 32 19 23 23 26 26 26 29 32 35 29 32 32 35 35 32 32 26 19 29 19 13 19 23 19 19 19 16 16 13 0 0 0 0 0 0 0 0 0 0
39 32 29 26 23 23 23 16 19 19 23 26 23 26 26 26 29 26 32 32 26 29 32 23 19 19 19 26 19 19 13 10 10 0 0 0 0 0 0 0 0 0 0
32 26 26 26 26 26 26 23 19 19 23 23 23 26 26 26 26 26 23 23 23 16 23 19 16 16 16 19 16 13 13 10 10 6 0 0 0 0 0 0 0 0 0
26 29 29 26 23 19 23 23 23 23 23 16 16 23 23 23 23 23 19 26 26 23 13 13 13 16 16 16 16 16 16 16 10 6 6 0 0 0 0 0 0 0 0
26 23 23 26 23 23 19 23 23 29 29 23 19 19 23 19 19 16 16 26 19 23 19 16 16 19 16 19 16 13 19 16 10 6 13 13 6 6 3 0 0 0 0
29 26 23 23 23 13 6 3 13 26 23 26 26 23 19 19 13 6 6 6 10 23 23 16 16 19 19 19 23 13 19 16 10 6 6 10 13 13 13 10 0 0 0
32 29 26 29 26 13 10 3 3 16 26 26 26 23 23 16 16 19 6 6 6 6 6 23 23 19 19 19 23 23 23 13 16 10 10 10 13 13 10 10 0 0 0
32 32 26 26 26 10 10 3 0 13 19 23 26 23 23 19 19 19 19 23 19 16 13 10 19 19 16 23 23 26 23 23 23 10 13 10 6 10 10 10 0 0 0
29 29 26 23 19 16 10 0 0 19 19 19 16 16 16 19 16 13 19 19 19 16 10 0 6 6 3 3 3 19 16 19 16 16 10 10 10 10 10 10 0 0 0
23 26 16 16 16 16 10 0 0 23 23 16 19 16 13 16 13 6 16 19 19 16 16 10 6 3 10 3 0 6 16 16 13 3 10 6 6 10 10 6 3 0 0

GEFSMA_con_cape1000_354.txt.gz
Probability
61 61 65 71 52 55 39 45 52 55 48 35 32 29 35 29 23 19 16 39 35 32 26 26 23 26 26 26 32 35 32 26 23 23 16 19 23 23 19 16 19 16 13
68 61 65 71 61 61 55 58 55 55 55 52 45 42 42 32 29 29 26 32 42 39 35 29 23 23 26 32 29 29 35 32 29 23 19 23 26 23 23 19 13 13 19
68 74 74 71 68 65 65 65 61 61 52 45 45 45 39 35 39 26 29 29 23 35 42 29 32 35 29 32 29 26 32 29 32 32 23 23 26 26 19 19 16 16 19
74 74 77 71 74 71 68 68 58 58 55 55 48 39 45 45 35 32 35 32 29 19 29 39 35 39 35 32 32 26 29 29 26 29 26 26 26 23 23 23 16 13 13
71 71 74 74 71 68 68 55 65 55 45 48 45 48 48 42 39 29 32 32 35 39 26 23 48 45 32 39 29 29 29 29 26 26 29 32 26 23 23 23 16 13 10
71 71 71 71 65 65 68 68 65 61 55 55 42 35 45 42 39 35 39 35 35 35 29 26 32 26 42 42 39 39 32 42 35 29 23 26 26 23 13 13 13 6 10
65 71 58 68 65 58 55 48 58 55 48 55 55 45 48 35 39 35 39 39 35 35 42 42 19 13 13 35 39 35 39 45 45 32 26 26 26 16 13 10 10 10 10
65 55 71 65 65 74 58 58 61 52 48 42 45 35 35 29 35 29 35 32 32 35 42 29 29 29 19 16 16 42 48 45 45 39 23 29 19 16 13 13 13 13 13
65 71 61 71 74 71 65 61 58 58 52 52 52 45 32 26 26 39 32 29 29 32 32 26 29 29 23 26 23 19 32 32 39 42 29 32 23 19 19 16 16 16 13
65 65 65 68 68 71 61 58 55 55 61 52 55 52 45 39 29 26 32 29 29 32 32 23 19 23 26 19 23 10 10 16 23 32 32 32 19 19 16 13 16 16 16
68 65 65 68 68 68 65 65 55 52 61 55 55 52 48 58 39 32 26 23 32 32 32 29 26 23 29 16 19 16 10 10 10 16 13 19 23 16 16 13 13 13 10
71 68 68 68 68 68 65 65 61 65 61 55 61 61 58 45 45 29 26 19 19 26 26 26 26 26 23 16 19 10 6 6 0 0 3 10 16 13 16 16 16 13 6
68 74 58 65 71 71 68 68 71 68 61 58 61 58 61 52 52 35 29 26 29 29 23 32 26 23 13 16 10 6 6 3 0 0 0 0 3 3 6 19 19 10 6
68 68 68 65 65 68 52 61 58 68 55 55 52 58 55 55 48 45 29 26 23 19 26 16 23 19 19 19 10 6 6 3 0 0 0 0 0 0 3 3 0 0 0
61 58 61 55 58 55 55 55 58 48 55 58 52 48 45 45 45 39 39 32 19 19 19 23 26 35 19 19 6 6 6 3 0 0 0 0 0 0 0 0 0 0 0
65 58 58 48 52 52 48 52 55 48 42 39 45 45 48 39 39 35 32 32 29 23 19 19 26 23 16 13 6 13 19 10 3 0 0 0 0 0 0 0 0 0 0
55 58 48 45 42 42 39 42 42 39 39 39 35 35 39 42 42 39 35 39 29 26 16 19 19 19 16 19 13 13 16 10 6 3 0 0 0 0 0 0 0 0 0
58 58 42 42 45 39 39 42 35 39 32 32 32 29 29 29 39 35 35 32 32 23 16 19 19 26 19 19 16 16 13 13 13 10 0 0 0 0 0 0 0 0 0
58 55 48 45 45 45 39 35 32 29 32 26 29 26 23 23 23 23 26 26 19 19 16 16 16 16 16 19 16 16 13 16 13 6 0 0 0 0 0 0 0 0 0
52 48 52 45 42 35 39 35 29 23 23 26 26 26 19 19 19 23 23 26 26 23 19 19 16 16 16 16 13 16 13 19 13 13 3 3 0 0 0 0 0 0 0
45 45 42 35 32 32 26 26 29 23 26 29 29 29 19 16 19 19 19 19 16 16 16 16 19 16 16 16 13 13 13 16 16 16 13 6 3 0 0 0 0 0 0
42 42 39 35 32 16 16 10 13 23 26 26 26 29 23 19 13 10 6 10 10 13 16 16 16 16 16 19 19 16 16 16 13 16 13 6 6 6 3 0 0 0 0
39 39 35 29 29 16 16 6 3 16 23 26 26 26 16 13 10 10 10 0 0 0 6 16 19 19 19 19 19 16 16 16 19 23 19 6 3 6 3 3 0 0 0
32 32 32 32 29 19 13 6 3 6 16 23 19 23 29 23 10 13 19 13 13 13 3 3 10 13 16 16 19 16 19 16 19 19 13 6 6 6 6 0 0 0 0
32 32 32 29 26 16 13 6 0 16 26 23 23 16 16 19 10 10 19 19 16 16 13 3 0 6 3 0 6 13 16 10 10 13 16 6 6 6 6 6 3 0 0
32 32 32 29 26 16 13 6 0 13 23 29 23 16 10 10 10 6 10 13 13 13 13 10 3 6 6 3 0 3 16 16 10 10 13 10 6 6 6 6 6 0 0